TimeAKST,TemperatureF,Dew PointF,Humidity,Sea Level PressureIn,VisibilityMPH,Wind Direction,Wind SpeedMPH,Gust SpeedMPH,PrecipitationIn,Events,Conditions,WindDirDegrees,DateUTC
12:16 AM,-2.2,-2.2,100,29.99,10.0,Calm,Calm,-,N/A,,Clear,0,2012-11-28 09:16:00
12:36 AM,-2.2,-7.6,78,29.98,10.0,East,3.5,-,N/A,,Clear,80,2012-11-28 09:36:00
12:56 AM,-2.2,-2.2,100,29.98,10.0,Calm,Calm,-,N/A,,Clear,0,2012-11-28 09:56:00
1:16 AM,-4.0,-7.6,85,29.97,10.0,Calm,Calm,-,N/A,,Clear,0,2012-11-28 10:16:00
1:36 AM,-2.2,-5.8,85,29.97,10.0,Calm,Calm,-,N/A,,Clear,0,2012-11-28 10:36:00
1:56 AM,-2.2,-5.8,85,29.97,10.0,Calm,Calm,-,N/A,,Clear,0,2012-11-28 10:56:00
2:16 AM,-0.4,-4.0,85,29.97,10.0,Calm,Calm,-,N/A,,Clear,0,2012-11-28 11:16:00
2:36 AM,-4.0,-11.2,71,29.96,10.0,Calm,Calm,-,N/A,,Partly Cloudy,0,2012-11-28 11:36:00
2:56 AM,-5.8,-9.4,84,29.96,10.0,ENE,3.5,-,N/A,,Clear,70,2012-11-28 11:56:00
3:16 AM,-0.4,-2.2,92,29.95,10.0,East,4.6,-,N/A,,Clear,80,2012-11-28 12:16:00
3:36 AM,-0.4,-5.8,78,29.95,10.0,East,3.5,-,N/A,,Clear,80,2012-11-28 12:36:00
3:56 AM,-0.4,-2.2,92,29.95,10.0,East,3.5,-,N/A,,Clear,100,2012-11-28 12:56:00
4:16 AM,-0.4,-5.8,78,29.94,10.0,East,4.6,-,N/A,,Clear,100,2012-11-28 13:16:00
4:36 AM,-2.2,-5.8,85,29.94,10.0,Calm,Calm,-,N/A,,Clear,0,2012-11-28 13:36:00
4:56 AM,-2.2,-7.6,78,29.93,10.0,Calm,Calm,-,N/A,,Clear,0,2012-11-28 13:56:00
5:16 AM,-4.0,-7.6,85,29.93,10.0,Calm,Calm,-,N/A,,Clear,0,2012-11-28 14:16:00
5:36 AM,-4.0,-7.6,85,29.93,10.0,Calm,Calm,-,N/A,,Clear,0,2012-11-28 14:36:00
5:56 AM,-5.8,-9.4,84,29.93,10.0,Calm,Calm,-,N/A,,Clear,0,2012-11-28 14:56:00
6:16 AM,-5.8,-9.4,84,29.92,10.0,Calm,Calm,-,N/A,,Clear,0,2012-11-28 15:16:00
6:36 AM,-5.8,-13.0,71,29.93,10.0,Calm,Calm,-,N/A,,Clear,0,2012-11-28 15:36:00
6:56 AM,-7.6,-11.2,84,29.92,10.0,Calm,Calm,-,N/A,,Clear,0,2012-11-28 15:56:00
7:16 AM,-7.6,-13.0,77,29.92,10.0,Calm,Calm,-,N/A,,Clear,0,2012-11-28 16:16:00
7:36 AM,-5.8,-7.6,92,29.92,10.0,East,3.5,-,N/A,,Clear,80,2012-11-28 16:36:00
7:56 AM,-5.8,-9.4,84,29.92,10.0,Calm,Calm,-,N/A,,Clear,0,2012-11-28 16:56:00
8:16 AM,-7.6,-11.2,84,29.91,10.0,Calm,Calm,-,N/A,,Clear,0,2012-11-28 17:16:00
8:36 AM,-7.6,-11.2,84,29.91,10.0,Calm,Calm,-,N/A,,Clear,0,2012-11-28 17:36:00
8:56 AM,-5.8,-7.6,92,29.91,10.0,East,3.5,-,N/A,,Clear,80,2012-11-28 17:56:00
9:16 AM,-5.8,-9.4,84,29.91,9.0,East,3.5,-,N/A,,Clear,80,2012-11-28 18:16:00
9:36 AM,-5.8,-9.4,84,29.91,10.0,Calm,Calm,-,N/A,,Clear,0,2012-11-28 18:36:00
9:56 AM,-7.6,-9.4,92,29.91,10.0,Calm,Calm,-,N/A,,Clear,0,2012-11-28 18:56:00
10:16 AM,-7.6,-9.4,92,29.91,10.0,Calm,Calm,-,N/A,,Clear,0,2012-11-28 19:16:00
10:36 AM,-7.6,-11.2,84,29.90,10.0,Calm,Calm,-,N/A,,Clear,0,2012-11-28 19:36:00
10:56 AM,-5.8,-7.6,92,29.89,10.0,East,3.5,-,N/A,,Clear,80,2012-11-28 19:56:00
11:16 AM,-4.0,-4.0,100,29.89,10.0,East,3.5,-,N/A,,Clear,90,2012-11-28 20:16:00
11:36 AM,-2.2,-7.6,78,29.88,10.0,East,3.5,-,N/A,,Clear,80,2012-11-28 20:36:00
11:56 AM,-0.4,-2.2,92,29.87,10.0,East,3.5,-,N/A,,Clear,80,2012-11-28 20:56:00
12:16 PM,-0.4,-2.2,92,29.86,10.0,Calm,Calm,-,N/A,,Clear,0,2012-11-28 21:16:00
12:36 PM,1.4,-0.4,92,29.85,10.0,ENE,3.5,-,N/A,,Clear,70,2012-11-28 21:36:00
12:56 PM,1.4,-0.4,92,29.84,10.0,ENE,3.5,-,N/A,,Clear,60,2012-11-28 21:56:00
1:16 PM,3.2,-0.4,85,29.84,10.0,Calm,Calm,-,N/A,,Clear,0,2012-11-28 22:16:00
1:36 PM,3.2,3.2,100,29.83,10.0,Calm,Calm,-,N/A,,Clear,0,2012-11-28 22:36:00
1:56 PM,5.0,3.2,92,29.83,10.0,Calm,Calm,-,N/A,,Clear,0,2012-11-28 22:56:00
2:16 PM,6.8,3.2,85,29.82,10.0,East,3.5,-,N/A,,Clear,90,2012-11-28 23:16:00
2:36 PM,6.8,6.8,100,29.81,10.0,Calm,Calm,-,N/A,,Clear,0,2012-11-28 23:36:00
2:56 PM,6.8,6.8,100,29.81,10.0,Calm,Calm,-,N/A,,Clear,0,2012-11-28 23:56:00
3:16 PM,8.6,6.8,92,29.80,10.0,East,3.5,-,N/A,,Clear,80,2012-11-29 00:16:00
3:36 PM,6.8,3.2,85,29.79,10.0,Calm,Calm,-,N/A,,Clear,0,2012-11-29 00:36:00
3:56 PM,5.0,-0.4,78,29.79,10.0,Calm,Calm,-,N/A,,Clear,0,2012-11-29 00:56:00
4:16 PM,3.2,1.4,92,29.78,10.0,Calm,Calm,-,N/A,,Clear,0,2012-11-29 01:16:00
4:36 PM,3.2,-0.4,85,29.78,10.0,Calm,Calm,-,N/A,,Clear,0,2012-11-29 01:36:00
4:56 PM,1.4,-2.2,85,29.78,10.0,Calm,Calm,-,N/A,,Clear,0,2012-11-29 01:56:00
5:16 PM,1.4,-2.2,85,29.78,9.0,Calm,Calm,-,N/A,,Clear,0,2012-11-29 02:16:00
5:36 PM,1.4,-4.0,78,29.77,10.0,Calm,Calm,-,N/A,,Clear,0,2012-11-29 02:36:00
5:56 PM,-2.2,-7.6,78,29.77,10.0,Calm,Calm,-,N/A,,Clear,0,2012-11-29 02:56:00
6:16 PM,-2.2,-5.8,85,29.76,10.0,Calm,Calm,-,N/A,,Clear,0,2012-11-29 03:16:00
6:36 PM,-0.4,-5.8,78,29.76,10.0,Calm,Calm,-,N/A,,Clear,0,2012-11-29 03:36:00
6:56 PM,-2.2,-7.6,78,29.76,10.0,Calm,Calm,-,N/A,,Clear,0,2012-11-29 03:56:00
7:16 PM,-2.2,-9.4,71,29.75,10.0,Calm,Calm,-,N/A,,Clear,0,2012-11-29 04:16:00
7:36 PM,-2.2,-5.8,85,29.74,10.0,Calm,Calm,-,N/A,,Clear,0,2012-11-29 04:36:00
7:56 PM,-2.2,-7.6,78,29.74,10.0,Calm,Calm,-,N/A,,Clear,0,2012-11-29 04:56:00
8:16 PM,-2.2,-5.8,85,29.73,10.0,Calm,Calm,-,N/A,,Clear,0,2012-11-29 05:16:00
8:36 PM,-4.0,-7.6,85,29.72,10.0,Calm,Calm,-,N/A,,Clear,0,2012-11-29 05:36:00
8:56 PM,-4.0,-9.4,78,29.72,10.0,Calm,Calm,-,N/A,,Clear,0,2012-11-29 05:56:00
9:16 PM,-5.8,-7.6,92,29.71,10.0,Calm,Calm,-,N/A,,Clear,0,2012-11-29 06:16:00
9:36 PM,-2.2,-2.2,100,29.70,10.0,Calm,Calm,-,N/A,,Clear,0,2012-11-29 06:36:00
9:56 PM,-5.8,-14.8,65,29.70,10.0,ENE,3.5,-,N/A,,Clear,60,2012-11-29 06:56:00
10:16 PM,-5.8,-7.6,92,29.70,10.0,Calm,Calm,-,N/A,,Clear,0,2012-11-29 07:16:00
10:36 PM,-5.8,-7.6,92,29.69,10.0,ENE,3.5,-,N/A,,Clear,70,2012-11-29 07:36:00
10:56 PM,-2.2,-5.8,85,29.69,10.0,Calm,Calm,-,N/A,,Clear,0,2012-11-29 07:56:00
11:16 PM,-5.8,-11.2,77,29.68,10.0,East,3.5,-,N/A,,Clear,80,2012-11-29 08:16:00
11:36 PM,-4.0,-5.8,92,29.69,10.0,ENE,3.5,-,N/A,,Clear,70,2012-11-29 08:36:00
11:56 PM,-4.0,-13.0,65,29.68,10.0,ENE,3.5,-,N/A,,Clear,70,2012-11-29 08:56:00